TimeEST,TemperatureF,Dew PointF,Humidity,Sea Level PressureIn,VisibilityMPH,Wind Direction,Wind SpeedMPH,Gust SpeedMPH,PrecipitationIn,Events,Conditions,WindDirDegrees,DateUTC
12:53 AM,30.9,19.9,64,30.09,10.0,West,18.4,31.1,N/A,,Scattered Clouds,280,2011-12-16 05:53:00
1:53 AM,30.9,19.9,64,30.11,10.0,West,19.6,25.3,N/A,,Scattered Clouds,280,2011-12-16 06:53:00
2:53 AM,32.0,19.9,61,30.16,10.0,West,16.1,24.2,N/A,,Mostly Cloudy,280,2011-12-16 07:53:00
3:53 AM,32.0,21.0,64,30.18,10.0,West,16.1,23.0,N/A,,Overcast,280,2011-12-16 08:53:00
4:53 AM,32.0,21.2,64,30.19,10.0,West,17.3,26.5,N/A,,Overcast,280,2011-12-16 09:53:00
5:53 AM,32.0,21.0,64,30.23,10.0,West,11.5,21.9,N/A,,Overcast,280,2011-12-16 10:53:00
6:53 AM,32.0,21.0,64,30.26,10.0,West,12.7,-,N/A,,Overcast,270,2011-12-16 11:53:00
7:53 AM,32.0,21.9,66,30.28,10.0,West,11.5,-,N/A,,Overcast,280,2011-12-16 12:53:00
8:53 AM,32.0,21.9,66,30.27,10.0,NW,11.5,-,N/A,,Overcast,320,2011-12-16 13:53:00
9:53 AM,33.1,23.0,66,30.29,10.0,NNW,10.4,-,N/A,,Overcast,330,2011-12-16 14:53:00
10:53 AM,32.0,23.0,69,30.30,10.0,WNW,9.2,-,N/A,,Overcast,300,2011-12-16 15:53:00
11:53 AM,32.0,23.0,69,30.30,10.0,West,9.2,-,N/A,,Overcast,280,2011-12-16 16:53:00
12:53 PM,32.0,23.0,69,30.32,10.0,West,10.4,-,N/A,,Overcast,260,2011-12-16 17:53:00
1:53 PM,32.0,24.1,73,30.30,10.0,West,9.2,-,N/A,,Overcast,280,2011-12-16 18:53:00
2:53 PM,32.0,23.0,69,30.28,10.0,West,10.4,-,N/A,,Overcast,280,2011-12-16 19:53:00
3:53 PM,30.9,23.0,72,30.28,10.0,WNW,9.2,-,N/A,,Overcast,300,2011-12-16 20:53:00
4:53 PM,30.9,23.0,72,30.29,10.0,NW,10.4,-,N/A,,Overcast,310,2011-12-16 21:53:00
5:53 PM,30.0,21.0,69,30.29,10.0,NW,11.5,20.7,N/A,,Overcast,320,2011-12-16 22:53:00
6:53 PM,30.0,21.0,69,30.30,10.0,WNW,9.2,-,N/A,,Overcast,300,2011-12-16 23:53:00
7:41 PM,30.2,21.2,69,30.27,10.0,West,8.1,-,N/A,,Overcast,270,2011-12-17 00:41:00
7:53 PM,30.0,21.0,69,30.30,10.0,West,8.1,-,N/A,,Overcast,280,2011-12-17 00:53:00
8:53 PM,30.0,21.9,72,30.30,10.0,WNW,6.9,-,N/A,,Overcast,290,2011-12-17 01:53:00
9:53 PM,30.0,21.9,72,30.31,10.0,WNW,11.5,-,N/A,,Overcast,290,2011-12-17 02:53:00
10:29 PM,30.2,21.2,69,30.28,10.0,WNW,10.4,-,N/A,,Overcast,300,2011-12-17 03:29:00
10:53 PM,30.0,21.9,72,30.31,10.0,NW,10.4,-,N/A,,Overcast,310,2011-12-17 03:53:00
11:53 PM,28.9,19.9,69,30.32,10.0,WNW,9.2,-,N/A,,Overcast,300,2011-12-17 04:53:00